When you browse on this site, cookies collect data to enhance your experience and personalize the content and advertising you see.
Visit our Privacy Policy to learn more. By continuing to use the site, you agree to this use of cookies and data.

Hourly Weather Syugut

Today, 9 July, Thursday

Time Temperature Precipitation Wind Pressure Humidity
00:00 +15°C° 0 mm 1 mps 613 mmHg 64%
01:00 +15°C° 0 mm 1 mps 613 mmHg 63%
02:00 +15°C° 0 mm 1 mps 614 mmHg 62%
03:00 +15°C° 0 mm 2 mps 614 mmHg 60%
04:00 +16°C° 0 mm 1 mps 615 mmHg 59%
05:00 +19°C° 0 mm 1 mps 615 mmHg 59%
06:00 +20°C° 0 mm 1 mps 616 mmHg 58%
07:00 +22°C° 0 mm 1 mps 617 mmHg 55%
08:00 +23°C° 0 mm 2 mps 617 mmHg 51%
09:00 +24°C° 0 mm 2 mps 618 mmHg 48%
10:00 +24°C° 0.4 mm 2 mps 618 mmHg 49%
11:00 +25°C° 0.4 mm 3 mps 618 mmHg 50%
12:00 +25°C° 0.4 mm 3 mps 618 mmHg 51%
13:00 +25°C° 1 mm 3 mps 618 mmHg 52%
14:00 +25°C° 1 mm 3 mps 618 mmHg 54%
15:00 +25°C° 1 mm 2 mps 618 mmHg 55%
16:00 +24°C° 0.9 mm 2 mps 617 mmHg 59%
17:00 +23°C° 0.9 mm 2 mps 617 mmHg 63%
18:00 +23°C° 0.9 mm 1 mps 617 mmHg 67%
19:00 +21°C° 0.7 mm 1 mps 617 mmHg 71%
20:00 +19°C° 0.7 mm 1 mps 617 mmHg 76%
21:00 +18°C° 0.7 mm 1 mps 617 mmHg 81%
22:00 +18°C° 0.3 mm 1 mps 617 mmHg 83%
23:00 +16°C° 0.3 mm 1 mps 617 mmHg 85%

Tomorrow, 10 July, Friday

Time Temperature Precipitation Wind Pressure Humidity
00:00 +16°C° 0.3 mm 1 mps 617 mmHg 87%
01:00 +16°C° 0.2 mm 1 mps 617 mmHg 87%
02:00 +16°C° 0.2 mm 1 mps 617 mmHg 87%
03:00 +16°C° 0.2 mm 1 mps 617 mmHg 87%
04:00 +16°C° 0.1 mm 1 mps 617 mmHg 86%
05:00 +18°C° 0.1 mm 1 mps 618 mmHg 86%
06:00 +18°C° 0.1 mm 1 mps 618 mmHg 86%
07:00 +19°C° 0.6 mm 1 mps 618 mmHg 84%
08:00 +18°C° 0.6 mm 2 mps 619 mmHg 83%
09:00 +19°C° 0.6 mm 2 mps 619 mmHg 82%
10:00 +20°C° 1.4 mm 2 mps 619 mmHg 80%
11:00 +20°C° 1.4 mm 2 mps 619 mmHg 78%
12:00 +21°C° 1.4 mm 2 mps 619 mmHg 77%
13:00 +21°C° 1.6 mm 2 mps 619 mmHg 78%
14:00 +20°C° 1.6 mm 2 mps 619 mmHg 78%
15:00 +20°C° 1.6 mm 2 mps 618 mmHg 79%
16:00 +20°C° 1 mm 2 mps 618 mmHg 80%
17:00 +21°C° 1 mm 1 mps 618 mmHg 81%
18:00 +20°C° 1 mm 1 mps 618 mmHg 82%
19:00 +19°C° 0.8 mm 1 mps 618 mmHg 84%
20:00 +18°C° 0.8 mm 1 mps 618 mmHg 87%
21:00 +18°C° 0.8 mm 1 mps 618 mmHg 90%
22:00 +16°C° 0.4 mm 1 mps 618 mmHg 92%
23:00 +16°C° 0.4 mm 1 mps 618 mmHg 93%

Day after tomorrow, 11 July, Saturday

Time Temperature Precipitation Wind Pressure Humidity
00:00 +16°C° 0.4 mm 1 mps 618 mmHg 95%
01:00 +16°C° 0.4 mm 1 mps 618 mmHg 95%
02:00 +16°C° 0.4 mm 1 mps 618 mmHg 95%
03:00 +16°C° 0.4 mm 1 mps 618 mmHg 95%
04:00 +16°C° 0.7 mm 1 mps 618 mmHg 95%
05:00 +16°C° 0.7 mm 1 mps 618 mmHg 94%
06:00 +16°C° 0.7 mm 1 mps 618 mmHg 94%
07:00 +16°C° 0.5 mm 1 mps 618 mmHg 92%
08:00 +18°C° 0.5 mm 1 mps 619 mmHg 90%
09:00 +18°C° 0.5 mm 1 mps 619 mmHg 87%
10:00 +19°C° 1 mm 1 mps 619 mmHg 85%
11:00 +19°C° 1 mm 1 mps 619 mmHg 84%
12:00 +20°C° 1 mm 1 mps 619 mmHg 82%
13:00 +20°C° 1.6 mm 1 mps 618 mmHg 81%
14:00 +20°C° 1.6 mm 1 mps 618 mmHg 80%
15:00 +21°C° 1.6 mm 1 mps 618 mmHg 79%
16:00 +20°C° 1.5 mm 1 mps 618 mmHg 80%
17:00 +20°C° 1.5 mm 1 mps 618 mmHg 80%
18:00 +20°C° 1.5 mm 1 mps 617 mmHg 80%
19:00 +19°C° 0.6 mm 1 mps 617 mmHg 83%
20:00 +18°C° 0.6 mm 1 mps 617 mmHg 86%
21:00 +16°C° 0.6 mm 1 mps 617 mmHg 89%
22:00 +15°C° 0.1 mm 1 mps 616 mmHg 88%
23:00 +15°C° 0.1 mm 1 mps 616 mmHg 88%

12 July, Sunday

Time Temperature Precipitation Wind Pressure Humidity
00:00 +14°C° 0.1 mm 1 mps 616 mmHg 88%
01:00 +14°C° 0.1 mm 1 mps 616 mmHg 87%
02:00 +14°C° 0.1 mm 1 mps 615 mmHg 87%
03:00 +13°C° 0.1 mm 0 mps 615 mmHg 86%
04:00 +14°C° 0.1 mm 0 mps 616 mmHg 85%
05:00 +16°C° 0.1 mm 1 mps 616 mmHg 83%
06:00 +18°C° 0.1 mm 1 mps 616 mmHg 82%
07:00 +19°C° 0.4 mm 1 mps 617 mmHg 79%
08:00 +20°C° 0.4 mm 1 mps 617 mmHg 75%
09:00 +20°C° 0.4 mm 2 mps 617 mmHg 72%
10:00 +20°C° 1.1 mm 2 mps 617 mmHg 72%
11:00 +21°C° 1.1 mm 2 mps 617 mmHg 72%
12:00 +21°C° 1.1 mm 2 mps 617 mmHg 71%
13:00 +20°C° 1.7 mm 2 mps 617 mmHg 74%
14:00 +21°C° 1.7 mm 1 mps 616 mmHg 76%
15:00 +20°C° 1.7 mm 1 mps 616 mmHg 78%
16:00 +20°C° 0.6 mm 1 mps 615 mmHg 79%
17:00 +20°C° 0.6 mm 1 mps 615 mmHg 79%
18:00 +19°C° 0.6 mm 1 mps 615 mmHg 80%
19:00 +19°C° 0.1 mm 1 mps 615 mmHg 80%
20:00 +18°C° 0.1 mm 1 mps 615 mmHg 80%
21:00 +18°C° 0.1 mm 1 mps 615 mmHg 80%
22:00 +16°C° 0 mm 1 mps 614 mmHg 82%
23:00 +15°C° 0 mm 1 mps 614 mmHg 83%

13 July, Monday

Time Temperature Precipitation Wind Pressure Humidity
00:00 +15°C° 0 mm 1 mps 614 mmHg 84%
01:00 +14°C° 0 mm 1 mps 613 mmHg 84%
02:00 +14°C° 0 mm 1 mps 613 mmHg 84%
03:00 +14°C° 0 mm 1 mps 613 mmHg 84%
04:00 +15°C° 0 mm 1 mps 613 mmHg 83%
05:00 +16°C° 0 mm 1 mps 614 mmHg 82%
06:00 +18°C° 0 mm 1 mps 614 mmHg 81%
07:00 +19°C° 0.1 mm 1 mps 615 mmHg 77%
08:00 +20°C° 0.1 mm 2 mps 615 mmHg 72%
09:00 +21°C° 0.1 mm 2 mps 615 mmHg 67%
10:00 +21°C° 1.1 mm 2 mps 615 mmHg 67%
11:00 +23°C° 1.1 mm 2 mps 615 mmHg 67%
12:00 +23°C° 1.1 mm 2 mps 615 mmHg 67%
13:00 +23°C° 1.6 mm 2 mps 615 mmHg 67%
14:00 +23°C° 1.6 mm 2 mps 615 mmHg 67%
15:00 +23°C° 1.6 mm 2 mps 615 mmHg 67%
16:00 +23°C° 1.2 mm 2 mps 615 mmHg 68%
17:00 +22°C° 1.2 mm 1 mps 614 mmHg 70%
18:00 +22°C° 1.2 mm 1 mps 614 mmHg 71%
19:00 +20°C° 0.4 mm 1 mps 614 mmHg 74%
20:00 +19°C° 0.4 mm 1 mps 614 mmHg 77%
21:00 +16°C° 0.4 mm 1 mps 614 mmHg 81%
22:00 +16°C° 0.5 mm 1 mps 614 mmHg 82%
23:00 +16°C° 0.5 mm 1 mps 614 mmHg 83%

14 July, Tuesday

Time Temperature Precipitation Wind Pressure Humidity
00:00 +16°C° 0.5 mm 2 mps 614 mmHg 84%
01:00 +16°C° 0.2 mm 1 mps 614 mmHg 83%
02:00 +16°C° 0.2 mm 1 mps 614 mmHg 83%
03:00 +16°C° 0.2 mm 1 mps 614 mmHg 82%
04:00 +18°C° 0 mm 1 mps 615 mmHg 79%
05:00 +18°C° 0 mm 1 mps 615 mmHg 77%
06:00 +19°C° 0 mm 1 mps 616 mmHg 75%
07:00 +20°C° 0.4 mm 1 mps 616 mmHg 73%
08:00 +21°C° 0.4 mm 1 mps 616 mmHg 71%
09:00 +20°C° 0.4 mm 2 mps 617 mmHg 70%
10:00 +21°C° 1.3 mm 2 mps 617 mmHg 68%
11:00 +23°C° 1.3 mm 2 mps 617 mmHg 66%
12:00 +23°C° 1.3 mm 2 mps 617 mmHg 65%
13:00 +23°C° 1.1 mm 2 mps 617 mmHg 64%
14:00 +23°C° 1.1 mm 2 mps 617 mmHg 64%
15:00 +23°C° 1.1 mm 2 mps 617 mmHg 64%
16:00 +23°C° 0.9 mm 2 mps 617 mmHg 66%
17:00 +23°C° 0.9 mm 1 mps 617 mmHg 68%
18:00 +22°C° 0.9 mm 1 mps 617 mmHg 70%
19:00 +20°C° 0.3 mm 1 mps 617 mmHg 74%
20:00 +18°C° 0.3 mm 1 mps 616 mmHg 78%
21:00 +16°C° 0.3 mm 1 mps 616 mmHg 82%
22:00 +15°C° 0 mm 1 mps 616 mmHg 82%
23:00 +15°C° 0 mm 1 mps 616 mmHg 82%
Show more